Weather History for MMCZ - December, 2012

Change the Weather History Date:

Monday, December 24, 2012

  Actual Average Record
Temperature  
Mean Temperature 64 °F -  
Max Temperature 75 °F 81 °F 87 °F (2004)
Min Temperature 53 °F 69 °F 53 °F (2012)
Degree Days  
Heating Degree Days 1    
Growing Degree Days 14 (Base 50)    
Moisture  
Dew Point 56 °F    
Average Humidity 78    
Maximum Humidity 94    
Minimum Humidity 53    
Precipitation  
Precipitation 0.00 in - - ()
Sea Level Pressure  
Sea Level Pressure 30.00 in    
Wind  
Wind Speed 2 mph ()    
Max Wind Speed 10 mph    
Max Gust Speed -    
Visibility 7.5 miles    
Events      
Averages and records for this station are not official NWS values.
T = Trace of Precipitation, MM = Missing Value Source: Averaged Metar Reports

Daily Weather History Graph

Daily Weather History Graph

Search for Another Location

Airport or City:

Trip Planner

Search our weather history database for the weather conditions in past years. The results will help you decide how hot, cold, wet, or windy it might be!

Date:

Astronomy

Dec. 24, 2012 Rise Set
Actual Time 6:20 AM CST 5:14 PM CST
Civil Twilight 5:56 AM CST 5:38 PM CST
Nautical Twilight 5:29 AM CST 6:06 PM CST
Astronomical Twilight 5:01 AM CST 6:33 PM CST
Moon 2:33 PM CST (12/24) 3:08 AM CST (12/24)
Length of Visible Light 11h 41m
Length of Day
10h 53m
Waxing Gibbous, 88% of the Moon is Illuminated
Dec 24
Waxing Gibbous
Dec 28
Full
Jan 4
Last Quarter
Jan 11
New
Jan 18
First Quarter

Hourly Weather History & Observations

Time (CST) Temp. Dew Point Humidity Pressure Visibility Wind Dir Wind Speed Gust Speed Precip Events Conditions
12:45 AM 53.6 °F 51.8 °F 94% 30.06 in 7.0 mi Calm Calm - N/A   Partly Cloudy
1:53 AM 55.4 °F 51.8 °F 88% 30.03 in 7.0 mi ENE 3.5 mph - N/A   Partly Cloudy
2:44 AM 55.4 °F 53.6 °F 94% 30.06 in 7.0 mi Calm Calm - N/A   Partly Cloudy
3:46 AM 53.6 °F 51.8 °F 94% 30.02 in 7.0 mi Calm Calm - N/A   Partly Cloudy
4:40 AM 53.6 °F 51.8 °F 94% 30.01 in 7.0 mi Calm Calm - N/A   Scattered Clouds
5:53 AM 53.6 °F 51.8 °F 94% 29.98 in 7.0 mi Calm Calm - N/A   Mostly Cloudy
6:46 AM 55.4 °F 53.6 °F 94% 30.03 in 7.0 mi Calm Calm - N/A   Scattered Clouds
7:44 AM 60.8 °F 57.2 °F 88% 30.05 in 8.0 mi Calm Calm - N/A   Scattered Clouds
8:40 AM 71.6 °F 60.8 °F 69% 30.09 in 8.0 mi East 5.8 mph - N/A   Scattered Clouds
9:43 AM 73.4 °F 59.0 °F 61% 30.07 in 8.0 mi East 8.1 mph - N/A   Scattered Clouds
10:43 AM 75.2 °F 60.8 °F 61% 30.05 in 8.0 mi East 10.4 mph - N/A   Mostly Cloudy
11:41 AM 75.2 °F 60.8 °F 61% 30.00 in 8.0 mi ESE 6.9 mph - N/A   Mostly Cloudy
12:40 PM 75.2 °F 59.0 °F 57% 30.00 in 8.0 mi East 6.9 mph - N/A   Scattered Clouds
1:40 PM 75.2 °F 57.2 °F 53% 29.97 in 8.0 mi ESE 5.8 mph - N/A   Scattered Clouds
2:45 PM 75.2 °F 57.2 °F 53% 29.99 in 8.0 mi SE 4.6 mph - N/A   Scattered Clouds
3:41 PM 73.4 °F 57.2 °F 57% 29.95 in 8.0 mi ESE 5.8 mph - N/A   Scattered Clouds
4:42 PM 71.6 °F 59.0 °F 64% 29.96 in 8.0 mi East 4.6 mph - N/A   Scattered Clouds
5:45 PM 64.4 °F 59.0 °F 83% 29.93 in 8.0 mi Calm Calm - N/A   Scattered Clouds
6:45 PM 62.6 °F 57.2 °F 82% 29.97 in 7.0 mi ESE 4.6 mph - N/A   Partly Cloudy
7:44 PM 60.8 °F 55.4 °F 82% 29.97 in 7.0 mi Calm Calm - N/A   Partly Cloudy
8:41 PM 60.8 °F 55.4 °F 82% 30.01 in 7.0 mi Calm Calm - N/A   Partly Cloudy
9:41 PM 57.2 °F 53.6 °F 88% 29.98 in 7.0 mi Calm Calm - N/A   Partly Cloudy
10:42 PM 59.0 °F 53.6 °F 82% 29.97 in 7.0 mi Calm Calm - N/A   Partly Cloudy
11:41 PM 57.2 °F 53.6 °F 88% 29.92 in 7.0 mi Calm Calm - N/A   Partly Cloudy